Location: El Bakhil
(32.7726°N, 5.5387°W)
Time: 10:48:47
(UTC+00:00)

H-2A R/B - Pass Details

Date: 03 March 2021
Orbit: 732 x 837 km, 98.2° (Epoch: 15 April)

Event Time Altitude Azimuth Distance (km) Brightness Sun altitude
Rises 19:36:53 0° 181° (S) 3,346 5.3 -16.7°
Reaches altitude 10° 19:39:17 10° 186° (S) 2,426 4.6 -17.2°
Maximum altitude 19:44:29 48° 261° (W) 1,076 3.2 -18.3°
Drops below altitude 10° 19:49:46 10° 335° (NNW) 2,454 5.0 -19.4°
Sets 19:52:13 0° 341° (NNW) 3,389 5.7 -19.9°
